User: anonymous   Login
Location: Saint-Denis
(20.8800°S, 55.4481°E)
Time: 00:01:42
(UTC+04:00)
Language:

FENGYUN 1C DEB - Orbit

View from above orbital plane
View from above orbital plane
View from above satellite
View from above satellite

Ground track
Ground track

The orbit data is extracted from the following two-line orbital elements,

1 30938U 99025BAC 24062.62174208  .00000842  00000-0  42624-3 0  9997
2 30938  98.6343  88.5351 0048164  59.2773  59.8851 14.18084962878994
Epoch (UTC): 02 March 2024 14:55:18
Eccentricity: 0.0048164
inclination: 98.6343°
perigee height: 797 km
apogee height: 866 km
right ascension of ascending node: 88.5351°
argument of perigee: 59.2773°
revolutions per day: 14.18084962
mean anomaly at epoch: 59.8851°
orbit number at epoch: 87899

The dashed part of the orbit path shows where the satellite is in the earth's shadow,  

DLR